Location: Newark
(58.9986°N, 38.5006°E)
Time: 05:47:41
(UTC+00:00)

N. Korean satellite - Pass Details

Date: 12 December 2019
Orbit: 454 x 507 km, 97.2° (Epoch: 24 January)

Event Time Altitude Azimuth Distance (km) Brightness Sun altitude
Rises 04:04:37 0° 12° (NNE) 2,571 10.1 -14.0°
Reaches altitude 10° 04:06:45 10° 8° (N) 1,676 9.1 -13.8°
Maximum altitude 04:10:15 54° 291° (WNW) 589 6.6 -13.4°
Drops below altitude 10° 04:13:41 10° 214° (SW) 1,633 9.1 -13.0°
Sets 04:15:44 0° 209° (SSW) 2,497 10.1 -12.7°
